Showing default

S-NET D, 43186

Orbit data source: Space-Track

S-NET D, 43186 is a payload satellite owned by TUB (DE) in SSO that was launched on Thu, 01 Feb 2018 UTC via a SOYUZ-2-1A launch vehicle from the Vostochny Cosmodrome (VOSTO). Payload-class satellites include a variety of spacecraft equipped with specific instruments for various scientific and technological missions. These include communications satellites like Starlink; space stations such as the ISS; scientific satellites like the Hubble; Earth observation satellites from companies like Planet Labs, Umbra, and HawkEye 360; GPS; miniature CubeSats for education and research; and military/defense satellites.

Loading next visibility...
Identifier
43186, 2018-014G
Orbit
SSO
Country
Flag of DEDE / GER
Related business
Manufacturer
TUB
Mission
Operational Amateur Com/Tech
Bus & Motor
TUBIX10, Unknown motor
Mass
8 kg wet, 8 kg dry
Launch date (UTC)
2018-02-01 (8 years ago)
Launch vehicle
SOYUZ-2-1A
Launch site
Vostochny Cosmodrome (VOSTO)
Object type
Payload
Rocket body
Debris
Shape & HBR
Box, 1.0 m
Radar Cross Section
0.086 m², Medium (>0.1 m² and < 1m²)

Expand to show TLE details & history
Last TLE update: 8 hours ago

TLE from 8 hours ago
0 S-NET D
1 43186U 18014G   26150.97738002  .00006158  00000-0  31922-3 0  9996
2 43186  97.5382  55.8769 0010099  80.8494 279.3881 15.16490756456153
Epoch: 2026-05-30T23:27Z
TLE epoch observation values (Epoch: 2026-05-30T23:27:25.633Z)
Latitude
-0.00003°
Longitude
175.53443°
Altitude
518.409 km
Speed
7.605 km/s
True Right ascension
03h 43m 30s
True Declination
0° 00' 00"
Sunlit
Object was in daylight at epoch
Visualization orbit readout
Latitude
Unknown
Longitude
Unknown
Altitude
Unknown
Speed
Unknown
Apparent Right ascension
Unknown
Apparent Declination
Unknown
Sunlit
N/A
Visualization observer readout
Local Sidereal Time
16:49:41
Azimuth
Unknown
Elevation
Unknown
Doppler factor
Unknown
Orbital elements
Apogee altitude
520.392 km
Perigee altitude
506.473 km
Semi-major axis
6,891.57 km
Eccentricity
0.00101
Inclination
97.5382°
RAAN
55.8769°
Arg. of periapsis
80.8494°
True anomaly
279.2739°
Mean anomaly
279.3881°
Eccentric anomaly
279.331°
Mean motion
3.79373 °/min
Orbital period
94.89 mins
BSTAR
0.00031922
Loading maneuver chart data...
Computing Atmospheric mass density...
Loading historical data...
Loading historical data...
Loading historical data...
Loading historical data...
Loading historical data...
Loading historical data...
Loading historical data...

Documentation

Showing up to 5 results
|